Wind_Speed
45 48 50 53 57 60 63 67 70 73 76 79 83 86 90 94 97 101 105 108 113 117 121 125 130 134 139 143 147 151 154 156 158 159 160 161 162 162 163 165 166 167 167 167 167 167 166 166 165 164 164 163 162 162 161 161 161 161 161 160 160 159 158 157 156 155 154 153 152 150 149 148 147 145 144 142 141 139 137 135 133 131 129 127 125 123
44 47 49 52 55 59 62 65 68 72 75 78 81 84 88 92 95 99 103 106 110 114 118 122 127 131 136 140 144 148 151 154 156 158 159 160 160 161 162 163 164 165 166 166 166 166 166 165 165 164 163 162 161 161 160 160 160 159 159 159 159 158 158 157 156 155 154 153 151 150 149 148 147 145 144 143 141 139 138 136 134 132 130 128 126 125
43 46 49 52 54 58 61 64 67 70 73 76 79 83 86 90 93 97 101 105 108 112 116 120 124 128 133 137 141 145 148 151 154 156 157 158 159 160 160 161 162 163 164 165 165 165 165 165 164 163 163 162 161 160 159 159 159 158 158 158 158 157 157 156 156 155 154 153 151 150 148 147 146 145 144 143 141 139 138 136 134 133 131 129 127 126
42 45 48 51 53 56 59 62 66 69 72 75 78 81 84 88 91 95 99 102 106 110 114 118 122 126 130 134 138 142 146 149 152 154 156 157 158 158 159 160 161 162 163 164 164 165 164 164 164 163 162 162 161 160 159 159 158 158 157 157 156 156 156 155 155 155 154 153 151 150 149 147 146 145 144 143 141 140 138 136 135 133 131 129 128 126
41 44 47 49 52 55 58 61 64 67 70 73 77 80 83 86 90 93 97 100 104 108 112 115 119 123 127 131 135 139 143 146 150 152 154 155 156 157 158 158 159 160 161 163 163 164 164 164 163 163 162 162 161 160 160 159 158 158 157 156 156 155 155 154 154 154 153 152 151 150 149 147 146 145 144 143 141 140 138 137 135 133 132 130 128 126
39 42 45 48 51 54 57 60 63 66 69 72 75 78 81 84 88 91 95 99 102 106 110 113 117 120 124 128 132 136 140 144 147 150 152 154 155 156 156 157 158 159 160 161 162 163 163 163 163 162 162 161 161 160 160 159 158 158 157 156 155 154 154 153 153 153 153 152 151 150 149 148 147 145 144 143 141 140 138 137 135 134 132 130 129 127
37 40 43 46 49 52 55 58 62 65 68 71 74 77 80 83 86 89 93 97 100 104 107 111 114 118 121 125 129 133 137 141 145 148 150 152 154 154 155 156 156 157 158 159 160 161 162 162 162 162 161 161 160 160 159 159 158 157 156 155 155 154 153 152 152 152 152 151 150 149 149 148 147 145 144 143 141 140 138 137 135 134 133 131 129 127
35 38 41 44 47 50 54 57 60 63 66 69 72 75 78 81 84 88 91 95 98 102 105 109 112 116 119 123 126 130 134 138 142 145 148 151 152 153 154 154 155 156 157 158 159 160 160 161 161 161 161 160 160 159 159 158 157 156 156 155 154 153 153 152 151 151 151 150 149 149 148 148 147 146 144 143 141 140 138 137 135 134 133 131 130 128
33 36 39 42 46 49 52 55 58 61 65 68 71 74 76 80 83 86 89 93 97 100 103 107 110 113 117 120 124 127 131 135 139 143 146 149 150 152 153 153 154 154 155 156 157 158 159 160 160 160 160 160 160 159 158 158 157 156 155 154 154 153 152 151 151 150 150 149 148 148 147 147 146 146 144 143 141 140 138 137 136 135 133 132 130 129
32 35 38 41 44 47 50 53 56 60 63 66 69 72 75 78 81 84 88 91 95 98 101 105 108 111 114 118 121 125 129 133 136 140 144 146 149 150 151 152 152 153 154 155 156 157 158 159 160 160 160 160 160 159 158 157 157 156 155 154 153 152 152 151 150 150 149 148 148 147 147 146 146 145 144 143 141 140 138 137 136 135 134 132 131 130
31 33 36 39 42 45 48 51 54 58 61 64 67 70 73 76 79 82 86 89 93 96 99 103 106 109 112 115 119 122 126 130 134 137 141 144 146 148 149 150 151 152 152 153 155 156 157 158 159 160 160 160 160 159 158 157 156 155 155 154 153 152 151 151 150 149 149 148 147 146 146 145 145 145 144 142 141 140 139 137 136 135 134 133 132 131
29 32 34 37 40 43 46 49 52 56 59 62 65 69 71 74 77 80 84 87 91 94 97 101 104 107 110 113 116 120 123 127 131 135 138 141 144 146 148 149 150 150 151 152 153 154 156 157 158 159 159 159 159 159 158 157 156 155 154 153 153 152 151 151 150 149 148 147 146 146 145 145 144 144 143 142 141 140 139 138 137 135 134 133 132 131
28 30 33 35 38 41 44 47 51 54 57 61 64 67 70 72 75 78 82 85 88 92 95 98 101 105 108 111 114 117 121 125 128 132 135 139 142 144 146 147 148 149 150 151 152 153 154 156 157 158 159 159 159 158 158 157 156 155 154 153 152 152 151 150 150 149 148 147 146 145 145 144 144 143 143 142 141 140 139 138 137 136 134 133 132 132
26 29 31 34 36 39 42 45 49 52 55 58 61 64 67 70 73 76 79 83 86 89 93 96 99 102 105 108 112 115 118 122 126 129 133 136 139 142 144 146 147 148 149 150 151 152 153 154 156 157 158 158 158 158 157 157 156 155 154 153 152 152 151 150 150 149 148 147 146 145 144 144 144 143 142 141 141 140 139 138 137 135 134 133 133 132
25 27 30 32 35 37 40 43 46 49 53 56 59 62 65 68 71 74 77 80 84 87 90 94 97 100 103 106 110 113 116 119 123 126 130 134 136 139 141 144 145 146 147 148 150 151 152 153 155 156 157 157 158 158 157 157 156 155 154 153 152 152 151 150 150 149 148 147 146 145 144 144 143 142 141 141 141 140 139 138 136 135 134 134 133 132
23 26 28 31 33 36 39 42 44 47 50 53 57 60 63 66 69 72 75 78 81 84 88 91 95 98 101 104 107 110 114 117 120 124 127 131 134 136 139 142 143 145 146 147 148 149 150 152 153 155 156 156 157 157 157 156 156 155 154 153 152 151 151 150 149 149 148 147 146 145 144 143 142 142 141 141 140 139 138 137 136 135 135 134 133 132
22 24 27 30 32 35 38 40 43 45 48 51 54 58 61 64 67 70 72 75 79 82 85 89 92 95 99 102 105 108 111 115 118 121 125 128 131 134 137 139 142 143 145 146 147 148 149 151 152 153 155 156 156 157 156 156 155 155 154 153 152 151 151 150 149 148 147 146 145 144 143 143 142 141 140 140 139 139 138 137 136 135 135 134 133 132
21 23 26 28 31 34 36 39 41 44 46 49 52 55 58 61 64 67 70 73 76 79 83 86 89 93 96 99 103 106 109 112 115 119 122 125 128 131 134 137 140 141 143 144 146 147 148 149 151 152 154 155 155 156 156 155 155 154 153 153 152 151 150 150 149 148 147 146 145 144 143 142 141 140 140 139 139 138 137 136 136 135 134 134 133 132
21 23 25 27 30 33 35 38 40 42 45 47 50 53 56 59 62 65 68 71 74 77 80 83 86 90 93 97 100 103 106 110 113 116 119 123 126 129 132 135 137 139 141 143 144 145 146 148 149 151 152 153 154 155 155 155 154 154 153 152 152 151 150 149 149 148 147 145 144 143 142 142 141 140 139 139 138 138 137 136 135 135 134 133 132 132
20 22 24 27 29 31 34 36 39 41 43 46 48 51 54 57 60 63 66 69 71 74 77 80 84 87 90 94 97 100 104 107 110 113 117 120 123 126 129 132 135 138 139 141 142 144 145 147 148 150 151 152 153 154 154 154 154 153 153 152 151 151 150 149 148 147 146 145 144 143 142 141 140 140 139 139 138 137 136 135 135 134 134 133 132 132
20 22 24 26 28 30 33 35 37 40 42 44 47 49 52 55 58 61 64 66 69 72 75 78 81 84 87 91 94 98 101 105 108 111 114 117 120 123 127 130 133 135 137 139 141 142 143 145 147 148 150 151 152 153 153 153 153 153 152 152 151 151 150 149 148 147 146 145 144 143 142 141 140 139 139 138 137 136 136 135 135 134 133 133 133 132
19 21 23 25 27 29 32 34 36 39 41 43 45 48 50 53 56 59 61 64 67 70 72 75 78 81 84 88 92 95 99 102 105 108 111 114 117 121 124 127 130 133 135 137 139 140 142 143 145 147 148 150 151 152 152 153 153 152 152 152 151 150 150 149 148 147 146 145 144 142 141 140 140 139 139 138 137 136 135 135 134 134 133 133 133 133
19 21 22 24 27 29 31 33 35 37 40 42 44 46 49 51 54 56 59 62 64 67 69 72 75 78 82 85 89 92 96 99 103 106 109 112 115 118 121 124 127 130 133 135 137 138 140 142 144 145 147 148 150 151 152 152 152 152 152 151 151 150 150 149 148 147 146 145 143 142 141 140 139 139 138 138 137 136 135 135 134 134 133 133 133 133
18 20 22 24 26 28 30 32 34 36 38 40 42 45 47 49 52 54 57 59 62 64 67 69 72 76 79 83 86 90 94 97 100 103 106 109 112 115 118 121 125 128 130 132 134 136 138 140 142 144 145 147 148 150 151 151 152 152 152 151 151 150 149 149 148 146 145 144 143 142 141 140 139 138 138 137 136 136 135 134 134 133 133 133 133 133
18 19 21 23 25 27 29 31 33 35 37 39 41 43 45 47 50 52 55 57 60 62 65 68 71 74 77 80 84 88 91 94 97 101 104 107 109 112 115 119 122 125 128 130 132 134 136 139 140 142 144 146 147 149 150 151 151 151 151 151 151 150 149 148 147 146 145 144 143 142 141 140 139 138 138 137 136 135 134 134 133 133 133 133 133 133
17 19 21 23 25 27 29 31 33 35 36 38 40 41 43 46 48 50 53 55 58 60 63 66 68 71 74 77 81 85 88 92 95 98 101 104 107 110 113 116 119 122 125 127 130 132 135 137 139 141 143 145 146 148 149 150 151 151 151 151 150 150 149 148 147 146 145 144 142 141 140 139 139 138 137 136 135 135 134 133 133 133 133 133 133 133
16 18 20 22 24 26 28 30 32 34 35 37 38 40 42 44 46 48 51 53 55 58 61 63 66 68 71 75 79 82 86 89 93 96 98 101 104 107 110 114 117 120 122 125 127 130 133 135 138 140 142 144 145 147 148 149 150 150 151 151 150 150 149 148 147 146 145 143 142 141 140 139 138 138 137 136 135 134 134 133 133 133 133 133 133 133
15 17 19 22 24 25 27 29 31 33 35 36 38 39 41 42 44 46 48 51 53 56 59 61 63 66 69 73 76 79 83 87 90 93 96 99 102 105 108 111 114 117 119 122 125 127 131 133 136 138 140 142 144 146 147 148 149 150 150 150 150 149 149 148 147 146 144 143 142 141 140 139 138 137 136 135 135 134 134 133 133 133 133 133 133 133
15 17 19 21 23 25 27 29 31 32 34 36 37 38 40 41 43 44 46 49 52 54 57 59 62 64 67 70 73 77 81 84 87 90 93 96 99 102 105 108 111 114 117 119 122 125 128 131 134 136 139 141 143 144 146 147 148 149 149 149 149 149 148 147 146 145 144 143 142 141 140 139 138 137 136 135 135 134 134 133 133 133 133 133 133 133
14 16 18 20 22 24 26 28 30 32 33 35 37 38 39 41 42 43 45 48 50 53 55 58 60 62 65 68 71 75 79 82 85 88 91 94 97 99 102 105 109 112 114 117 120 124 127 130 132 135 137 139 141 143 145 146 147 148 149 149 149 148 148 147 146 145 144 143 142 141 140 139 138 137 136 135 135 134 134 133 133 133 133 133 133 133
13 15 17 19 22 24 25 27 29 31 33 35 36 38 39 40 41 43 45 47 50 52 54 57 59 61 64 67 70 73 76 79 82 86 89 92 94 96 99 103 106 109 112 115 118 122 125 128 130 133 135 137 140 141 143 145 146 147 148 148 148 148 147 146 145 144 144 143 142 141 140 139 138 137 136 136 135 135 134 133 133 132 133 133 132 132
12 14 16 18 21 23 25 27 29 31 33 34 36 38 39 40 42 43 45 47 49 51 54 56 58 60 63 65 68 71 74 77 80 83 86 89 91 94 97 100 103 106 109 112 115 119 123 126 128 130 133 136 138 140 142 144 145 146 147 147 148 147 147 146 145 144 143 142 141 140 139 138 138 137 136 136 135 135 134 133 132 132 132 132 132 132
11 13 15 18 20 22 24 26 28 30 32 34 36 38 39 41 42 44 46 47 49 51 53 55 58 60 62 64 66 68 71 74 78 81 83 86 88 91 94 97 101 104 106 109 113 116 119 122 125 128 131 134 136 138 141 143 144 145 146 147 147 147 146 145 145 144 143 142 141 140 139 138 138 137 137 136 135 134 133 132 132 131 131 131 131 132
10 12 14 16 19 21 23 25 27 30 32 34 36 38 39 41 43 44 46 48 49 51 53 55 57 59 61 63 65 67 69 73 76 78 81 83 85 88 92 95 98 101 104 107 110 113 116 119 122 125 128 131 134 137 139 142 143 145 146 146 146 146 146 145 144 144 143 142 141 140 139 138 138 137 136 136 135 134 133 132 131 131 131 131 131 131
10 11 13 15 18 20 22 24 27 29 31 33 35 37 39 41 43 45 46 48 49 51 53 55 57 59 61 63 64 66 68 71 74 76 78 81 83 86 89 93 96 99 102 105 108 111 114 117 120 123 126 129 132 135 138 140 142 144 145 145 146 146 145 145 144 143 142 142 141 140 139 138 138 137 136 135 134 133 133 132 131 131 130 131 131 131
9 10 12 14 16 19 21 23 26 28 30 32 34 37 39 41 42 44 46 47 49 51 53 55 57 59 61 62 64 66 68 70 72 74 76 78 81 84 87 91 94 97 100 102 105 109 112 115 117 120 124 127 131 134 137 139 141 143 144 145 145 145 145 144 144 143 142 141 140 139 139 138 137 137 136 135 134 133 132 132 131 130 130 130 130 130
8 9 11 13 15 17 20 22 24 26 29 31 33 35 37 40 41 43 45 47 49 51 53 55 57 59 61 62 64 66 67 69 71 73 75 77 79 82 85 89 92 95 97 100 103 106 109 112 115 118 122 125 129 132 135 137 140 141 143 144 144 145 144 144 143 142 142 141 140 139 139 138 137 136 135 134 133 133 132 132 131 130 130 130 130 130
7 8 9 11 13 16 18 20 23 25 27 30 32 34 36 38 40 42 44 46 48 51 53 55 57 59 61 62 64 66 67 69 70 72 73 75 78 81 84 87 90 92 95 98 100 103 106 109 112 116 120 123 126 130 133 135 138 140 142 143 144 144 144 143 143 142 141 141 140 139 138 137 136 135 134 133 133 133 133 132 131 130 130 130 130 130
7 7 8 10 12 14 16 19 21 23 26 28 30 33 35 37 39 41 43 46 48 50 53 55 57 59 61 63 64 66 67 68 70 71 72 74 77 79 82 85 88 90 93 95 98 101 104 107 110 114 117 121 124 127 130 133 136 139 140 142 142 143 143 143 143 142 141 140 139 138 137 137 136 135 134 134 134 134 134 133 132 130 130 130 130 130
6 6 7 9 11 13 15 17 19 22 24 26 29 31 33 35 38 40 42 45 47 49 52 54 56 58 60 62 64 65 67 68 69 70 71 73 76 78 81 83 86 88 90 93 96 98 101 104 108 111 114 118 122 125 128 131 134 137 139 140 142 142 143 143 142 142 141 140 139 138 137 136 135 135 134 134 135 135 135 133 131 130 129 129 129 129
5 5 6 7 9 11 13 16 18 20 23 25 27 29 32 34 37 39 41 43 46 48 51 53 55 57 59 61 63 64 65 67 68 69 71 73 75 77 79 82 84 86 88 91 94 96 99 102 106 109 112 115 119 122 126 129 132 135 137 139 141 142 142 142 142 141 140 139 138 137 136 136 136 135 135 135 135 135 134 132 131 129 128 128 128 128
5 4 5 6 8 10 12 15 17 19 21 24 26 28 30 33 35 38 40 42 45 47 49 52 54 56 58 60 62 63 64 66 67 68 70 72 74 76 78 80 82 85 87 89 92 95 98 101 104 107 110 113 116 120 123 127 130 133 135 137 139 140 141 141 141 140 139 138 137 136 136 136 135 135 135 135 134 133 132 130 129 128 127 127 127 127
4 3 4 5 7 9 11 13 16 18 20 22 25 27 29 32 34 36 39 41 44 46 48 51 53 55 57 59 61 62 64 65 67 68 70 72 74 76 78 80 82 84 86 88 91 93 96 99 102 105 108 111 114 117 121 124 128 131 133 136 137 139 139 140 140 139 138 137 136 136 136 135 135 135 134 133 132 131 130 129 129 128 127 126 126 126
4 3 3 4 6 8 10 13 15 17 19 21 23 26 28 31 33 35 38 40 43 45 48 50 52 54 57 58 60 62 63 65 67 68 70 72 74 76 78 80 81 83 85 88 90 92 95 97 100 103 105 108 111 115 118 122 125 129 131 134 136 137 138 139 138 137 137 136 136 135 135 135 134 133 132 131 130 129 129 129 129 128 127 126 126 125
4 2 2 3 5 8 10 12 14 16 18 20 23 25 27 30 32 34 37 39 42 44 47 49 52 54 56 58 60 62 63 65 67 68 70 72 74 76 77 79 81 83 85 87 89 91 93 96 98 101 103 106 109 112 116 119 123 126 129 132 134 135 136 137 137 136 136 135 135 135 134 134 132 131 131 130 129 130 130 130 129 128 127 126 125 124
4 2 1 3 5 7 9 11 13 16 18 20 22 24 27 29 31 34 36 39 41 44 46 49 51 53 56 58 60 62 63 65 67 68 70 72 73 75 77 79 80 82 84 86 87 89 91 93 96 98 101 104 107 110 113 117 120 124 127 129 132 133 134 135 135 135 135 135 134 134 133 132 131 131 130 130 131 131 132 131 130 128 127 126 124 123
4 2 1 3 5 7 9 11 13 15 17 20 22 24 26 28 31 33 36 38 40 43 45 48 50 52 55 57 59 61 63 64 66 68 69 71 72 74 76 77 79 80 82 84 85 87 89 91 93 95 98 101 105 108 111 115 118 121 125 127 130 132 133 134 135 135 134 134 134 133 132 132 131 131 131 131 132 132 131 130 129 127 126 124 123 122
4 2 1 3 5 7 9 11 13 15 17 19 21 24 26 28 30 33 35 37 40 42 44 47 49 51 53 55 57 59 61 63 65 66 68 69 71 72 73 75 76 78 80 81 83 85 87 89 91 94 97 100 103 106 109 113 116 119 123 126 128 131 132 133 134 134 134 134 133 132 132 131 131 131 131 132 132 132 130 129 128 126 125 123 122 122
4 2 1 3 5 7 9 11 13 15 17 19 21 23 26 28 30 32 34 36 39 41 43 45 48 50 52 54 56 58 59 61 63 64 66 67 68 70 71 73 74 76 77 79 81 83 85 88 90 92 95 98 101 104 107 111 115 118 121 124 127 129 131 132 133 133 133 133 133 132 131 131 132 132 132 132 132 131 130 129 127 126 125 123 122 121
5 2 1 3 5 7 9 11 13 15 17 19 21 23 25 27 29 32 34 36 38 40 42 44 46 48 50 52 54 56 57 59 60 62 63 65 66 67 69 71 73 74 76 78 80 82 84 86 89 91 94 97 100 103 106 110 113 117 120 123 126 128 130 131 132 133 133 133 132 132 131 132 132 132 132 132 132 132 130 129 127 126 124 123 122 121
5 3 2 3 5 7 9 11 13 15 17 19 21 23 25 27 29 31 33 36 37 39 41 43 45 47 49 50 52 54 55 57 59 60 62 63 65 66 68 70 72 74 75 77 79 81 83 86 88 90 93 96 99 102 105 109 112 116 119 122 125 127 129 131 132 133 133 133 132 132 132 132 132 132 132 132 133 132 130 129 127 126 124 123 122 121
Wind_Direction
223 221 220 219 218 218 217 216 216 215 214 214 214 213 213 213 212 212 212 212 212 212 213 213 213 213 214 214 215 215 215 216 216 216 217 217 216 216 216 215 215 215 215 215 215 215 216 216 216 216 217 217 217 217 217 217 217 217 217 217 218 218 218 218 218 218 219 219 219 219 219 219 220 220 220 220 221 221 221 221 222 222 222 222 223 223
222 220 219 218 218 217 217 216 215 214 214 213 213 213 213 212 212 211 211 211 211 212 212 212 213 213 213 214 214 214 215 215 216 216 216 216 216 216 216 215 215 215 215 215 215 215 215 216 216 216 216 216 217 217 217 217 217 217 217 217 217 217 217 217 218 218 218 218 218 218 219 219 219 219 220 220 220 220 221 221 221 221 221 222 222 222
222 220 219 217 217 216 216 216 215 214 214 213 213 213 212 212 212 211 211 211 211 211 211 212 212 212 213 213 214 214 214 215 215 216 216 216 216 216 216 215 215 215 215 215 215 215 215 215 215 216 216 216 216 216 216 217 217 217 217 217 217 217 217 217 217 218 218 218 218 218 218 218 219 219 219 219 219 220 220 220 220 221 221 221 221 221
222 220 219 217 216 216 215 215 215 214 213 213 212 212 212 212 212 211 211 210 210 210 211 211 212 212 212 213 213 213 214 214 215 215 216 216 216 216 216 215 215 215 214 214 214 215 215 215 215 215 215 216 216 216 216 216 216 216 216 216 217 217 217 217 217 217 217 217 217 218 218 218 218 218 219 219 219 219 219 219 220 220 220 220 220 221
223 221 219 218 216 215 215 214 214 214 213 213 212 212 212 211 211 211 211 210 210 210 210 211 211 211 212 212 213 213 213 214 214 215 215 216 216 216 215 215 215 214 214 214 214 214 214 215 215 215 215 215 215 215 215 216 216 216 216 216 216 216 216 217 217 217 217 217 217 217 217 217 218 218 218 218 218 219 219 219 219 219 220 220 220 220
224 222 220 218 217 216 215 214 214 213 213 212 212 212 211 211 211 211 211 210 210 210 210 210 211 211 211 212 212 212 213 213 214 214 215 215 215 216 215 215 215 214 214 214 214 214 214 214 214 215 215 215 215 215 215 215 215 215 215 215 216 216 216 216 216 217 217 217 217 217 217 217 217 217 218 218 218 218 218 218 218 219 219 219 219 219
224 223 221 219 218 216 215 214 213 213 213 212 212 211 211 211 211 211 210 210 210 210 210 210 210 210 211 211 212 212 212 213 213 214 214 215 215 215 215 215 215 214 214 214 214 214 214 214 214 214 215 215 215 215 215 215 215 215 215 215 215 215 215 216 216 216 216 216 216 216 216 217 217 217 217 217 217 217 217 218 218 218 218 218 218 219
224 223 222 220 219 217 216 214 214 213 213 212 212 211 211 211 211 210 210 210 210 210 210 210 210 210 210 211 211 211 212 212 213 213 214 214 215 215 215 215 215 214 214 214 213 213 213 214 214 214 214 215 215 215 215 215 215 215 215 215 215 215 215 215 215 215 216 216 216 216 216 216 216 217 217 217 217 217 217 217 217 217 218 218 218 218
224 222 222 220 219 218 216 215 214 213 212 212 212 211 211 211 210 210 210 210 210 210 209 209 209 210 210 210 210 211 211 212 212 213 213 214 214 215 215 215 215 214 214 213 213 213 213 213 213 214 214 214 214 215 215 215 215 215 215 215 215 215 215 215 215 215 215 215 215 215 216 216 216 216 216 216 216 216 216 216 217 217 217 217 217 217
223 222 221 220 219 218 217 216 215 214 213 212 212 211 211 211 211 210 210 210 210 210 209 209 209 209 209 210 210 210 211 211 212 212 213 213 214 214 214 214 214 214 214 213 213 213 213 213 213 213 214 214 214 214 214 214 214 215 215 215 215 214 214 214 214 215 215 215 215 215 215 215 216 216 216 216 216 216 216 216 216 216 216 217 217 217
222 221 220 219 219 218 217 217 216 214 213 212 212 211 211 211 211 210 210 210 210 210 209 209 209 209 209 209 209 210 210 211 211 212 212 213 213 214 214 214 214 214 213 213 213 213 212 212 213 213 213 214 214 214 214 214 214 214 214 214 214 214 214 214 214 214 214 214 214 214 215 215 215 215 215 215 215 215 215 215 215 216 216 216 216 216
223 220 219 218 218 218 217 217 216 215 214 213 212 211 211 211 211 211 210 210 210 210 210 209 209 209 209 209 209 209 210 210 211 211 212 212 213 213 214 214 214 214 213 213 213 212 212 212 212 213 213 213 213 214 214 214 214 214 214 214 214 214 214 214 214 214 214 214 214 214 214 214 215 215 215 215 215 215 215 215 215 215 215 215 216 216
223 221 219 217 217 217 217 217 216 216 215 214 213 212 211 211 211 211 210 210 210 210 210 209 209 209 209 209 209 209 209 210 210 211 211 212 212 213 213 213 213 213 213 213 213 212 212 212 212 212 212 213 213 213 214 214 213 213 214 214 214 214 214 214 213 213 213 213 213 213 213 214 214 214 214 214 214 214 214 214 214 214 215 215 215 216
224 222 219 217 216 216 216 216 216 216 215 214 213 212 212 211 211 211 211 210 210 210 210 210 209 209 209 208 208 209 209 209 210 210 211 211 212 212 213 213 213 213 213 213 212 212 212 212 212 212 212 212 213 213 213 213 213 213 213 213 213 213 213 213 213 213 213 213 213 213 213 213 213 214 214 214 214 214 214 214 214 214 214 214 215 215
226 223 219 217 216 215 215 215 216 216 216 215 214 213 212 211 211 211 211 211 210 210 210 210 209 209 209 208 208 208 209 209 209 210 210 211 211 212 212 212 213 213 213 212 212 212 211 211 211 211 212 212 212 213 213 213 213 213 213 213 213 213 213 213 213 213 213 213 212 212 212 213 213 213 213 213 213 213 213 213 213 213 213 214 214 215
227 224 221 218 216 215 214 214 215 215 215 215 214 213 213 212 211 211 211 211 211 211 210 210 210 209 209 208 208 208 208 209 209 209 210 210 211 211 212 212 212 212 212 212 212 212 211 211 211 211 211 212 212 212 213 213 213 213 213 213 213 213 213 213 213 213 213 212 212 212 212 212 212 213 213 213 213 213 213 213 213 213 213 213 214 214
227 224 222 219 216 214 214 213 214 214 215 215 214 214 213 212 212 211 211 211 211 211 211 210 210 209 209 208 208 208 208 208 209 209 209 210 210 211 211 211 212 212 212 212 212 211 211 211 211 211 211 211 212 212 212 212 212 212 212 212 212 213 213 213 213 213 213 212 212 212 212 212 212 212 212 212 212 212 212 212 212 212 213 213 213 214
227 224 222 220 218 215 213 213 213 213 213 214 214 214 213 213 212 211 211 211 211 211 211 211 210 210 209 209 208 208 208 208 208 209 209 209 210 210 210 211 211 211 212 212 211 211 211 211 210 210 211 211 211 212 212 212 212 212 212 212 212 212 212 213 213 213 212 212 212 212 212 212 212 212 212 212 212 212 212 212 212 212 212 213 213 213
228 224 222 221 219 216 214 213 212 212 212 213 213 214 213 213 212 212 211 211 211 211 211 211 210 210 210 209 209 208 208 208 208 208 209 209 209 210 210 210 211 211 211 211 211 211 211 210 210 210 210 210 211 211 211 212 212 212 212 212 212 212 212 212 212 212 212 212 212 211 211 211 211 211 211 212 212 212 211 211 212 212 212 212 212 213
229 225 223 221 220 218 215 213 212 211 211 211 212 213 213 213 213 212 211 211 211 211 211 211 211 210 210 209 209 209 208 208 208 208 208 209 209 209 210 210 210 211 211 211 211 211 210 210 210 210 210 210 210 211 211 211 212 212 212 212 212 212 212 212 212 212 212 212 211 211 211 211 211 211 211 211 211 211 211 211 211 211 211 211 212 212
231 226 222 220 219 218 216 214 212 211 210 210 210 211 212 212 212 212 211 211 211 210 211 211 211 210 210 209 209 209 208 208 208 208 208 208 208 209 209 209 210 210 210 211 210 210 210 210 210 209 209 210 210 210 211 211 211 211 211 211 212 212 212 212 212 212 212 211 211 211 211 211 211 211 211 211 211 211 211 211 211 211 211 211 211 212
232 227 223 220 219 218 216 215 213 211 210 209 209 210 210 211 212 212 211 211 210 210 210 210 210 210 210 210 209 209 209 208 208 208 208 208 208 208 209 209 209 210 210 210 210 210 210 210 209 209 209 209 209 210 210 210 211 211 211 211 211 211 211 211 212 212 211 211 211 211 210 210 210 210 210 211 210 210 210 210 210 210 210 210 211 211
233 227 223 220 218 217 216 214 213 211 210 209 209 209 209 210 211 211 211 210 210 210 210 210 210 210 210 210 209 209 209 209 208 208 208 208 208 208 208 209 209 209 210 210 210 210 209 209 209 209 209 209 209 209 210 210 210 211 211 211 211 211 211 211 211 211 211 211 211 210 210 210 210 210 210 210 210 210 210 210 210 210 210 210 210 211
233 228 223 220 218 216 214 213 212 211 210 209 208 208 208 209 209 210 210 210 210 210 209 209 209 210 210 210 209 209 209 209 208 208 208 208 208 208 208 208 208 209 209 209 209 209 209 209 209 209 208 208 209 209 209 209 210 210 210 211 211 211 211 211 211 211 211 211 210 210 210 210 209 210 210 210 210 210 209 209 209 209 209 210 210 211
234 229 224 220 217 215 213 212 211 210 209 208 208 207 208 208 208 209 209 209 209 209 209 209 209 209 209 209 209 209 209 209 209 208 208 208 207 207 207 208 208 208 209 209 209 209 209 209 209 208 208 208 208 208 209 209 209 210 210 210 210 211 211 211 211 211 211 210 210 210 210 209 209 209 210 210 210 209 209 209 209 209 209 209 210 210
235 229 224 220 218 215 213 211 210 209 208 207 207 206 207 207 207 208 208 208 208 208 208 208 208 208 209 209 209 209 209 209 209 208 208 208 207 207 207 207 208 208 208 208 208 208 208 208 208 208 208 208 208 208 208 208 209 209 210 210 210 210 210 210 210 210 210 210 210 210 209 209 209 209 209 209 209 209 209 209 208 209 209 209 209 210
236 230 225 221 217 215 212 210 209 208 206 206 205 205 205 206 206 207 207 207 207 207 207 207 207 207 208 208 209 209 209 209 209 208 208 208 207 207 207 207 207 208 208 208 208 208 208 208 208 208 208 208 208 208 208 208 208 209 209 209 210 210 210 210 210 210 210 210 210 209 209 209 209 209 209 209 209 209 209 208 208 208 208 209 209 209
237 230 225 221 218 215 212 210 208 206 205 204 203 203 204 204 205 206 206 206 206 207 207 206 206 206 207 207 208 208 209 209 209 208 208 208 207 207 207 207 207 207 207 207 207 208 208 208 208 207 207 207 207 207 207 208 208 208 209 209 209 210 210 210 209 209 209 209 209 209 209 209 208 208 208 208 208 208 208 208 208 208 208 208 208 209
238 231 226 221 218 215 212 209 207 205 204 202 202 201 202 202 203 204 204 205 205 205 205 205 205 206 206 207 207 208 208 209 209 208 208 208 207 207 206 206 206 207 207 207 207 207 207 207 207 207 207 207 207 207 207 207 207 208 208 209 209 209 209 209 209 209 209 209 209 209 208 208 208 208 208 208 208 208 208 208 208 208 208 208 208 208
239 231 226 221 218 214 212 209 206 204 203 201 200 199 199 200 200 201 202 203 204 204 204 204 204 204 205 206 206 207 208 208 208 208 208 207 207 206 206 206 206 206 206 206 206 207 207 207 207 207 207 207 207 206 207 207 207 207 208 208 209 209 209 209 209 209 209 209 208 208 208 208 208 208 208 208 208 208 208 208 207 207 207 208 208 208
241 233 226 222 218 214 211 208 206 204 201 200 198 198 197 197 198 199 200 201 202 202 202 202 203 203 204 204 205 206 207 207 207 208 208 207 207 206 206 206 206 206 206 206 206 206 206 207 207 207 206 206 206 206 206 206 207 207 207 208 208 208 208 208 208 208 208 208 208 208 208 208 207 207 207 207 208 208 208 207 207 207 207 207 207 208
244 234 227 222 218 214 211 208 205 203 201 199 197 196 196 195 196 197 198 199 200 200 200 201 201 201 202 203 204 205 206 206 207 207 207 207 206 206 205 205 206 206 206 205 206 206 206 206 206 206 206 206 206 206 206 206 206 206 207 207 208 208 208 208 208 208 208 208 208 208 207 207 207 207 207 207 207 208 208 207 207 207 207 207 207 207
248 236 229 223 218 215 211 208 205 202 200 198 197 195 195 194 195 195 196 197 198 198 198 199 199 199 200 201 202 203 204 205 206 206 207 206 206 205 205 205 205 205 205 205 205 205 206 206 206 206 205 205 205 205 205 206 206 206 206 207 207 207 208 208 208 208 208 208 207 207 207 207 207 207 207 207 207 207 207 207 207 207 207 207 207 207
251 239 231 224 219 215 211 208 205 202 200 198 196 195 194 194 194 194 195 195 196 196 197 197 197 198 198 199 200 201 203 204 205 205 206 206 205 205 205 205 205 205 205 205 205 205 205 205 205 205 205 205 205 205 205 205 205 206 206 206 206 207 207 207 207 207 207 207 207 207 207 207 207 207 206 206 207 207 207 207 207 206 206 207 207 207
255 242 233 226 220 216 212 209 206 203 200 198 197 195 194 194 193 193 194 194 194 195 195 195 196 196 196 197 198 199 201 202 203 204 204 204 204 204 204 204 205 205 204 204 204 204 205 205 205 205 205 205 205 205 205 205 205 205 205 206 206 206 206 207 207 207 207 207 207 207 207 206 206 206 206 206 206 207 207 207 206 206 206 206 206 207
261 246 235 227 221 217 213 210 206 203 201 199 197 196 195 194 193 193 193 193 193 193 193 194 194 194 195 195 196 197 199 200 201 202 203 203 203 203 203 204 204 204 204 204 204 204 204 204 204 204 204 204 204 204 204 204 204 204 205 205 205 206 206 206 206 206 206 206 206 206 206 206 206 206 206 206 206 206 206 206 206 206 206 206 206 206
266 250 237 229 223 218 214 210 207 204 202 199 198 196 195 194 194 193 193 192 192 192 192 193 193 193 193 194 195 196 197 198 199 200 201 201 202 202 203 203 204 204 204 204 204 204 204 204 204 204 204 204 204 204 204 204 204 204 204 204 205 205 205 205 206 206 206 206 206 206 206 206 206 206 206 205 205 206 206 206 206 206 206 206 206 206
275 254 241 230 224 219 214 211 208 205 203 200 198 197 196 194 193 193 192 192 192 192 192 192 192 192 192 193 193 194 195 196 197 198 199 199 200 201 202 202 203 203 203 203 203 203 203 203 203 203 203 203 203 203 203 203 203 203 204 204 204 204 205 205 205 205 205 205 205 205 205 205 205 205 205 205 205 205 206 206 206 206 206 206 206 206
281 261 243 232 224 219 214 211 208 205 203 201 199 197 196 195 194 193 192 192 192 192 192 192 192 192 192 192 192 193 194 194 195 196 197 197 198 199 200 201 202 202 202 202 203 203 203 203 203 203 203 203 203 203 203 203 203 203 203 203 203 204 204 204 204 205 205 205 205 205 205 205 205 205 205 205 205 205 206 206 206 205 205 205 206 206
290 267 246 233 224 218 214 211 208 205 203 201 199 197 196 195 194 193 192 192 192 192 192 192 191 191 191 191 192 192 193 193 193 194 195 196 197 198 199 200 201 201 202 202 202 202 202 203 203 203 203 203 203 202 202 202 202 202 202 202 203 203 203 204 204 204 204 204 204 204 204 204 204 204 204 204 205 205 205 205 205 205 205 205 206 206
299 273 248 232 223 217 212 209 206 204 202 200 198 197 196 195 194 193 192 192 192 192 192 191 191 191 191 191 191 191 191 191 192 192 193 194 195 197 198 199 200 200 201 201 201 202 202 202 202 202 202 202 202 202 202 202 202 202 202 202 202 202 203 203 203 203 203 203 203 203 204 204 204 204 204 204 204 205 205 205 205 205 205 205 205 206
308 279 250 231 220 214 210 206 204 202 200 199 198 196 195 194 193 193 192 192 192 191 191 191 191 191 190 190 190 190 190 190 190 191 192 193 194 195 196 197 198 199 200 200 200 201 201 201 202 202 202 202 202 202 201 201 201 201 201 201 202 202 202 202 202 203 203 203 203 203 203 203 204 204 204 204 204 205 205 205 205 205 205 205 205 206
319 289 251 227 216 210 206 203 201 200 198 197 196 195 194 193 193 192 191 191 191 191 191 190 190 190 190 190 189 189 189 189 189 190 191 192 193 194 195 196 197 198 198 199 200 200 200 201 201 201 201 201 201 201 201 201 201 201 201 201 201 201 201 202 202 202 202 202 202 202 203 203 203 203 204 204 204 204 204 205 205 205 205 205 205 206
330 299 249 222 210 204 201 199 198 196 196 195 194 193 193 192 192 191 191 190 190 190 190 190 189 189 189 189 188 188 188 188 189 189 190 191 192 193 194 195 196 196 197 198 198 199 199 200 200 200 200 200 200 200 200 200 200 200 200 200 200 200 201 201 201 201 201 201 202 202 202 203 203 203 203 203 203 204 204 205 205 205 205 205 205 205
341 317 248 213 202 199 197 195 194 193 192 192 192 191 191 190 190 190 190 189 189 189 189 189 189 188 188 188 188 188 188 188 188 189 189 190 191 192 193 194 194 195 196 197 198 198 198 199 199 199 199 200 200 200 200 200 200 199 199 199 200 200 200 200 200 200 200 201 201 202 202 202 202 202 202 203 203 203 204 205 205 205 205 205 204 205
349 333 234 199 195 193 191 190 190 189 189 189 189 189 189 189 189 189 189 188 188 188 188 188 188 188 188 187 187 187 187 187 188 188 189 190 191 191 192 193 194 195 195 196 197 197 198 198 198 198 199 199 199 199 199 199 199 199 199 199 199 199 199 199 199 199 200 200 201 201 201 201 202 202 202 202 202 203 204 204 204 204 204 204 204 204
358 351 195 186 184 186 186 185 185 185 185 185 186 186 187 187 187 187 187 188 188 187 187 187 187 188 188 187 187 187 187 187 188 188 189 189 190 191 192 192 193 194 195 195 196 196 197 197 197 198 198 198 198 198 198 198 198 198 198 198 198 198 198 198 198 199 199 199 200 200 200 201 201 201 201 201 202 203 204 204 204 204 204 204 204 204
5 8 141 171 176 178 180 180 181 182 182 183 183 184 184 185 185 186 186 186 187 187 187 187 187 187 187 187 187 187 187 187 188 188 189 189 190 190 191 192 192 193 194 194 195 195 196 196 196 197 197 197 197 197 197 197 197 197 197 197 197 197 197 197 197 198 198 199 199 199 200 200 200 201 201 201 202 203 203 204 204 204 204 204 204 204
11 20 122 161 168 172 175 177 178 178 179 180 180 181 182 183 183 184 184 185 185 186 186 186 186 186 186 187 187 187 187 187 187 188 188 189 189 190 190 191 192 192 193 194 194 195 195 195 195 196 196 196 196 196 196 196 196 196 196 196 196 196 196 196 196 197 197 198 198 199 199 200 200 200 200 201 202 202 203 203 203 204 203 203 203 204
16 29 105 150 162 167 170 173 174 176 176 177 178 179 180 181 181 182 183 183 184 184 185 185 185 186 186 186 186 186 186 186 187 187 187 188 188 189 189 190 191 192 192 193 193 194 194 194 194 195 195 195 195 195 195 195 195 195 195 195 195 195 195 195 195 196 196 197 197 198 199 199 200 200 200 201 201 202 202 202 203 203 203 203 203 204
22 37 95 143 156 161 166 169 171 173 174 175 176 177 178 179 180 180 181 181 182 183 183 184 184 184 184 184 184 185 185 185 185 186 186 187 187 188 189 189 190 191 192 192 193 193 193 193 194 194 194 194 194 194 194 194 194 194 194 194 194 194 194 194 195 195 195 196 197 197 198 199 199 200 200 201 201 201 201 202 202 203 202 202 203 204
Height
9966 9968 9971 9975 9978 9982 9986 9990 9994 9998 10003 10008 10013 10018 10024 10030 10036 10043 10050 10057 10065 10072 10080 10087 10095 10102 10110 10118 10126 10135 10144 10153 10163 10173 10183 10193 10204 10215 10226 10237 10248 10259 10270 10281 10292 10303 10314 10325 10335 10347 10358 10370 10381 10392 10403 10414 10424 10434 10444 10454 10464 10475 10486 10496 10506 10515 10524 10534 10545 10555 10563 10572 10581 10590 10599 10608 10616 10625 10632 10640 10647 10655 10662 10670 10678 10686
9962 9965 9967 9970 9974 9978 9981 9986 9990 9994 9998 10003 10008 10013 10019 10025 10031 10037 10044 10051 10058 10065 10073 10080 10088 10095 10103 10111 10120 10129 10138 10147 10156 10166 10175 10186 10196 10207 10218 10230 10241 10252 10263 10274 10285 10296 10307 10318 10328 10340 10352 10363 10375 10386 10397 10407 10418 10428 10438 10448 10458 10468 10478 10488 10498 10507 10516 10527 10537 10548 10557 10565 10574 10583 10592 10601 10610 10618 10626 10633 10641 10648 10656 10663 10672 10679
9958 9961 9963 9966 9970 9973 9977 9981 9985 9990 9994 9999 10003 10009 10015 10020 10026 10032 10038 10045 10051 10058 10066 10073 10081 10089 10097 10105 10114 10123 10131 10141 10150 10159 10168 10178 10189 10200 10211 10223 10234 10245 10257 10268 10278 10290 10300 10311 10322 10333 10344 10356 10367 10378 10389 10399 10410 10420 10430 10440 10451 10461 10472 10481 10490 10499 10509 10520 10530 10541 10550 10559 10567 10577 10585 10594 10603 10612 10620 10627 10635 10642 10650 10657 10664 10671
9955 9957 9960 9963 9966 9969 9973 9977 9981 9986 9990 9995 10000 10005 10010 10015 10021 10027 10033 10039 10045 10052 10060 10067 10075 10083 10090 10099 10108 10116 10125 10134 10143 10152 10161 10171 10181 10193 10204 10215 10226 10238 10250 10261 10272 10283 10293 10304 10315 10326 10337 10347 10358 10369 10379 10389 10400 10410 10421 10432 10443 10453 10464 10474 10483 10492 10502 10513 10523 10534 10543 10552 10560 10569 10578 10588 10597 10605 10613 10620 10628 10637 10643 10651 10658 10663
9953 9955 9957 9960 9963 9966 9970 9973 9978 9981 9986 9990 9995 10000 10005 10010 10016 10022 10028 10034 10040 10046 10053 10060 10068 10076 10084 10093 10101 10110 10119 10128 10136 10146 10155 10165 10175 10185 10196 10208 10219 10231 10242 10253 10265 10275 10286 10297 10307 10318 10328 10338 10348 10359 10369 10379 10390 10400 10412 10423 10435 10446 10457 10467 10476 10485 10495 10506 10517 10527 10536 10545 10553 10562 10572 10581 10590 10598 10607 10615 10623 10631 10638 10645 10652 10658
9950 9953 9955 9957 9960 9963 9966 9970 9974 9978 9982 9986 9991 9996 10001 10006 10011 10018 10023 10029 10035 10041 10047 10055 10061 10070 10078 10086 10095 10104 10113 10122 10131 10140 10148 10158 10168 10178 10189 10200 10211 10223 10235 10246 10257 10268 10278 10289 10300 10310 10320 10330 10340 10350 10360 10370 10381 10392 10404 10416 10427 10438 10449 10459 10468 10478 10488 10499 10510 10520 10528 10537 10546 10555 10565 10574 10583 10592 10600 10608 10617 10625 10632 10638 10646 10655
9948 9950 9953 9955 9958 9961 9964 9967 9970 9974 9978 9983 9987 9992 9996 10002 10007 10013 10018 10024 10030 10036 10042 10049 10056 10064 10071 10080 10089 10098 10106 10115 10124 10133 10142 10151 10161 10171 10181 10192 10203 10215 10227 10239 10250 10262 10273 10283 10294 10304 10315 10325 10335 10345 10355 10365 10375 10386 10397 10408 10420 10431 10442 10452 10461 10471 10481 10492 10502 10512 10521 10530 10538 10548 10557 10567 10577 10585 10594 10602 10610 10617 10624 10632 10641 10650
9946 9948 9951 9953 9956 9959 9961 9964 9967 9971 9975 9979 9983 9988 9993 9998 10003 10008 10014 10020 10025 10031 10038 10044 10051 10058 10066 10075 10083 10091 10100 10109 10118 10126 10135 10145 10154 10164 10174 10185 10196 10208 10220 10233 10245 10256 10267 10278 10289 10299 10309 10319 10329 10339 10349 10359 10370 10380 10391 10402 10413 10423 10434 10444 10454 10464 10474 10485 10495 10505 10514 10523 10532 10541 10550 10560 10570 10579 10588 10596 10603 10611 10618 10627 10635 10643
9943 9946 9948 9951 9954 9956 9959 9962 9965 9968 9972 9976 9980 9985 9989 9994 9999 10004 10010 10015 10021 10026 10033 10039 10045 10053 10060 10068 10076 10085 10094 10103 10111 10120 10128 10138 10147 10157 10167 10178 10190 10202 10214 10226 10238 10250 10262 10272 10283 10293 10303 10312 10322 10332 10342 10353 10363 10374 10385 10395 10407 10417 10427 10437 10447 10457 10467 10478 10488 10498 10507 10516 10525 10534 10543 10553 10563 10573 10582 10590 10598 10605 10612 10620 10628 10635
9941 9943 9946 9948 9951 9954 9957 9960 9963 9966 9970 9973 9977 9981 9986 9990 9995 10000 10005 10011 10016 10021 10028 10034 10040 10047 10055 10063 10071 10080 10088 10096 10105 10113 10122 10131 10140 10150 10161 10172 10183 10195 10207 10219 10231 10243 10254 10265 10275 10285 10294 10303 10313 10323 10334 10345 10356 10367 10378 10388 10399 10410 10420 10430 10440 10450 10460 10471 10482 10492 10500 10509 10518 10527 10537 10547 10557 10566 10575 10583 10591 10598 10605 10613 10620 10628
9939 9941 9943 9946 9948 9951 9955 9958 9961 9964 9967 9970 9974 9978 9983 9987 9991 9996 10001 10006 10012 10018 10023 10030 10036 10043 10050 10058 10066 10074 10082 10090 10098 10107 10116 10125 10135 10144 10155 10165 10176 10188 10200 10211 10223 10235 10245 10256 10267 10276 10286 10295 10305 10315 10326 10337 10348 10359 10370 10382 10392 10403 10413 10423 10433 10443 10453 10464 10474 10484 10493 10502 10511 10520 10530 10540 10550 10559 10568 10577 10584 10592 10599 10607 10613 10621
9936 9938 9940 9943 9946 9949 9952 9955 9958 9961 9965 9968 9971 9975 9979 9983 9988 9993 9998 10003 10008 10014 10020 10025 10031 10038 10045 10053 10060 10068 10076 10085 10093 10101 10110 10119 10128 10138 10148 10158 10170 10181 10192 10204 10215 10226 10238 10249 10259 10269 10279 10288 10298 10308 10319 10330 10341 10352 10363 10374 10385 10395 10405 10416 10425 10435 10446 10456 10467 10477 10487 10495 10504 10513 10524 10534 10543 10553 10561 10569 10577 10585 10593 10600 10607 10615
9935 9936 9938 9941 9943 9946 9950 9953 9956 9959 9962 9965 9968 9972 9976 9980 9985 9990 9995 10000 10005 10010 10016 10021 10028 10034 10041 10048 10055 10063 10071 10078 10086 10095 10103 10113 10122 10131 10141 10152 10163 10174 10185 10197 10208 10220 10231 10242 10253 10263 10273 10282 10292 10302 10313 10323 10334 10345 10356 10367 10377 10388 10398 10408 10418 10428 10438 10448 10459 10470 10479 10488 10497 10507 10517 10528 10537 10546 10554 10563 10572 10579 10587 10594 10602 10608
9933 9935 9936 9939 9941 9944 9947 9950 9953 9956 9960 9963 9966 9970 9975 9979 9983 9987 9991 9996 10002 10007 10013 10018 10024 10030 10037 10044 10051 10058 10066 10073 10081 10090 10098 10106 10116 10125 10135 10146 10156 10167 10178 10190 10201 10213 10224 10235 10246 10257 10267 10276 10286 10296 10306 10317 10327 10338 10349 10360 10370 10380 10390 10400 10410 10420 10430 10441 10452 10462 10472 10481 10490 10500 10510 10521 10531 10539 10547 10557 10565 10573 10582 10588 10595 10603
9931 9933 9935 9937 9939 9941 9945 9948 9951 9954 9958 9961 9965 9968 9972 9976 9980 9984 9989 9993 9998 10004 10010 10015 10021 10026 10033 10040 10046 10053 10061 10068 10076 10084 10093 10101 10110 10119 10129 10139 10150 10160 10171 10183 10194 10205 10216 10228 10239 10250 10260 10270 10280 10289 10299 10310 10321 10332 10343 10353 10363 10373 10383 10393 10403 10413 10423 10434 10445 10455 10465 10474 10483 10494 10505 10515 10523 10532 10541 10550 10560 10569 10578 10583 10590 10597
9930 9931 9933 9935 9937 9940 9942 9945 9948 9951 9955 9959 9963 9966 9970 9973 9976 9981 9986 9991 9996 10001 10006 10011 10017 10023 10030 10036 10042 10049 10056 10063 10071 10079 10087 10096 10105 10114 10123 10133 10143 10154 10165 10176 10186 10198 10209 10221 10232 10243 10253 10263 10273 10283 10293 10303 10314 10325 10336 10347 10357 10367 10377 10386 10396 10406 10417 10428 10438 10449 10459 10468 10478 10488 10498 10508 10517 10526 10535 10545 10555 10564 10572 10577 10584 10592
9928 9930 9932 9933 9935 9937 9940 9942 9945 9949 9953 9956 9960 9964 9967 9971 9975 9980 9984 9988 9993 9998 10003 10008 10013 10020 10025 10032 10038 10045 10051 10058 10066 10074 10082 10090 10099 10108 10118 10128 10138 10148 10158 10169 10180 10191 10202 10214 10226 10236 10247 10257 10267 10276 10286 10297 10308 10318 10330 10340 10351 10361 10370 10380 10390 10400 10411 10422 10433 10443 10453 10463 10472 10482 10492 10502 10510 10520 10530 10539 10548 10558 10566 10572 10579 10588
9927 9928 9930 9931 9933 9935 9937 9940 9943 9946 9950 9954 9958 9961 9965 9970 9973 9977 9981 9986 9991 9995 10000 10005 10011 10016 10022 10028 10034 10041 10047 10055 10061 10069 10077 10085 10094 10103 10113 10122 10131 10141 10151 10162 10173 10184 10196 10208 10219 10230 10240 10250 10260 10270 10280 10291 10302 10312 10323 10334 10345 10355 10365 10374 10384 10395 10406 10417 10428 10438 10448 10458 10468 10477 10487 10495 10505 10514 10525 10534 10543 10552 10560 10567 10575 10583
9925 9926 9928 9930 9931 9933 9935 9938 9940 9943 9947 9951 9955 9959 9963 9966 9971 9975 9979 9983 9988 9993 9998 10003 10008 10014 10020 10026 10031 10037 10044 10051 10058 10065 10073 10081 10089 10098 10107 10116 10126 10135 10145 10155 10166 10177 10189 10201 10212 10223 10233 10244 10255 10265 10275 10285 10296 10307 10318 10328 10339 10349 10358 10368 10378 10389 10400 10412 10423 10433 10443 10453 10463 10472 10481 10490 10499 10509 10519 10529 10538 10547 10555 10563 10572 10579
9925 9925 9926 9928 9930 9932 9934 9936 9938 9941 9945 9948 9952 9956 9960 9964 9968 9972 9976 9981 9985 9990 9995 10000 10006 10011 10017 10023 10029 10035 10041 10048 10054 10061 10068 10076 10084 10093 10102 10111 10120 10130 10140 10150 10160 10171 10183 10194 10205 10216 10228 10238 10249 10259 10270 10280 10290 10301 10312 10323 10333 10343 10353 10362 10373 10383 10394 10406 10417 10428 10438 10448 10458 10467 10475 10484 10494 10504 10514 10524 10533 10541 10550 10558 10567 10574
9923 9924 9925 9926 9928 9930 9933 9935 9937 9940 9943 9946 9950 9953 9957 9961 9965 9970 9974 9978 9983 9988 9992 9998 10003 10008 10015 10020 10026 10032 10038 10044 10050 10056 10064 10071 10080 10088 10097 10106 10115 10124 10133 10143 10154 10165 10176 10188 10200 10211 10222 10233 10243 10253 10264 10274 10285 10295 10306 10317 10327 10337 10347 10357 10367 10377 10388 10400 10411 10422 10433 10443 10452 10461 10470 10478 10488 10499 10509 10518 10527 10536 10545 10553 10562 10568
9922 9923 9924 9925 9926 9928 9931 9933 9935 9938 9940 9943 9946 9950 9954 9958 9962 9966 9971 9976 9980 9985 9990 9995 10000 10006 10013 10018 10023 10029 10035 10040 10046 10053 10060 10068 10076 10084 10093 10101 10110 10118 10128 10138 10148 10159 10171 10182 10193 10205 10216 10227 10238 10248 10258 10269 10279 10290 10300 10310 10320 10331 10340 10350 10361 10372 10382 10393 10405 10416 10427 10437 10447 10456 10464 10473 10483 10493 10503 10513 10522 10530 10540 10548 10555 10563
9921 9922 9923 9924 9925 9927 9929 9931 9933 9936 9938 9941 9944 9948 9951 9955 9960 9964 9968 9973 9978 9982 9987 9993 9999 10005 10011 10016 10021 10026 10031 10037 10043 10050 10057 10064 10071 10079 10088 10096 10105 10114 10123 10132 10142 10154 10165 10176 10188 10199 10210 10221 10231 10242 10253 10263 10273 10284 10294 10304 10314 10325 10335 10345 10355 10366 10377 10388 10399 10410 10421 10432 10441 10450 10459 10468 10478 10488 10497 10507 10516 10525 10534 10542 10550 10557
9921 9921 9922 9923 9924 9925 9927 9929 9931 9934 9937 9940 9943 9946 9950 9953 9958 9962 9966 9971 9976 9981 9986 9991 9997 10002 10007 10013 10018 10023 10028 10034 10040 10046 10053 10060 10066 10075 10083 10092 10101 10109 10117 10126 10137 10148 10160 10171 10182 10193 10204 10215 10226 10236 10247 10258 10268 10278 10288 10298 10308 10318 10328 10339 10350 10360 10372 10383 10394 10405 10415 10425 10435 10445 10454 10463 10472 10482 10492 10502 10511 10520 10528 10537 10544 10552
9920 9920 9921 9921 9923 9924 9926 9928 9930 9933 9936 9940 9942 9945 9948 9951 9955 9960 9964 9969 9973 9978 9983 9988 9993 9998 10003 10009 10015 10020 10025 10030 10036 10043 10049 10056 10063 10071 10080 10088 10096 10103 10112 10121 10133 10144 10155 10165 10176 10187 10198 10210 10220 10231 10241 10252 10262 10272 10282 10292 10302 10312 10322 10333 10344 10355 10366 10377 10388 10399 10410 10421 10431 10440 10448 10458 10467 10477 10487 10496 10505 10515 10523 10531 10538 10547
9920 9920 9920 9921 9922 9923 9925 9927 9930 9931 9934 9936 9939 9942 9946 9950 9953 9958 9961 9966 9970 9975 9980 9985 9990 9995 10001 10007 10012 10016 10022 10028 10033 10040 10045 10052 10060 10068 10076 10083 10091 10098 10107 10117 10128 10139 10150 10160 10170 10181 10192 10203 10214 10224 10235 10245 10255 10265 10275 10285 10295 10305 10317 10327 10338 10350 10361 10372 10383 10394 10405 10416 10425 10434 10443 10453 10462 10472 10482 10491 10500 10508 10517 10525 10533 10541
9919 9920 9920 9920 9921 9922 9923 9925 9926 9928 9931 9934 9937 9940 9944 9947 9951 9955 9959 9963 9968 9973 9978 9982 9988 9993 9999 10004 10009 10014 10020 10025 10030 10036 10043 10050 10057 10064 10071 10079 10086 10095 10103 10113 10124 10134 10144 10154 10164 10175 10186 10196 10206 10217 10228 10238 10248 10258 10268 10278 10289 10300 10310 10322 10333 10344 10355 10367 10378 10389 10400 10410 10420 10429 10438 10448 10457 10467 10476 10485 10494 10503 10510 10518 10527 10535
9918 9918 9919 9920 9920 9921 9922 9924 9925 9928 9930 9932 9935 9938 9941 9945 9949 9953 9957 9962 9966 9971 9975 9980 9985 9991 9996 10000 10005 10011 10016 10021 10027 10033 10040 10046 10053 10060 10067 10075 10083 10091 10100 10109 10119 10128 10138 10148 10158 10168 10179 10189 10200 10211 10222 10233 10243 10253 10263 10273 10283 10293 10305 10316 10327 10338 10350 10361 10372 10383 10394 10405 10415 10424 10433 10443 10452 10461 10470 10479 10488 10496 10504 10512 10520 10529
9918 9918 9918 9919 9920 9920 9921 9923 9924 9926 9928 9930 9933 9936 9939 9943 9946 9951 9956 9960 9964 9968 9973 9978 9983 9988 9993 9998 10003 10008 10014 10018 10024 10030 10037 10043 10050 10056 10064 10072 10080 10087 10095 10105 10114 10124 10133 10142 10152 10162 10172 10183 10194 10205 10216 10227 10238 10248 10258 10268 10278 10288 10299 10310 10322 10333 10345 10355 10367 10378 10388 10399 10409 10419 10428 10438 10447 10455 10463 10472 10481 10490 10498 10506 10515 10523
9917 9917 9918 9918 9919 9920 9920 9921 9923 9925 9926 9929 9931 9934 9937 9940 9945 9948 9953 9956 9960 9965 9970 9975 9980 9985 9990 9995 10000 10005 10010 10015 10021 10027 10033 10040 10046 10053 10061 10069 10075 10083 10091 10100 10110 10119 10128 10137 10146 10156 10167 10178 10189 10200 10211 10222 10233 10243 10253 10263 10273 10283 10294 10306 10317 10328 10340 10350 10361 10372 10383 10393 10403 10413 10423 10432 10440 10448 10457 10466 10475 10483 10492 10500 10509 10518
9916 9916 9917 9917 9918 9919 9920 9921 9922 9924 9925 9928 9930 9932 9935 9938 9941 9945 9949 9953 9957 9961 9966 9971 9976 9981 9986 9991 9996 10001 10006 10011 10018 10024 10030 10035 10042 10050 10058 10065 10071 10078 10087 10096 10105 10113 10121 10130 10140 10151 10161 10173 10184 10195 10206 10216 10227 10237 10248 10258 10268 10279 10290 10301 10313 10323 10335 10345 10356 10367 10377 10388 10398 10408 10418 10427 10435 10442 10451 10460 10469 10478 10486 10495 10504 10513
9916 9916 9916 9917 9918 9918 9919 9920 9921 9923 9924 9926 9928 9930 9933 9936 9939 9942 9945 9950 9954 9958 9963 9968 9973 9978 9983 9988 9992 9998 10003 10010 10015 10021 10026 10033 10040 10048 10056 10061 10068 10075 10083 10092 10100 10107 10115 10124 10134 10145 10156 10167 10178 10190 10200 10211 10221 10231 10242 10252 10263 10274 10285 10297 10308 10319 10330 10340 10351 10362 10372 10383 10393 10402 10412 10421 10429 10437 10445 10454 10463 10472 10481 10490 10499 10508
9916 9916 9916 9916 9917 9918 9918 9920 9921 9922 9923 9925 9926 9928 9931 9933 9936 9939 9943 9946 9951 9955 9960 9964 9969 9974 9979 9984 9990 9996 10001 10007 10012 10018 10024 10031 10038 10046 10053 10059 10065 10073 10080 10088 10096 10103 10111 10120 10130 10140 10151 10161 10173 10184 10195 10205 10216 10226 10236 10247 10258 10269 10280 10292 10303 10314 10325 10335 10345 10356 10367 10378 10387 10397 10406 10416 10424 10432 10440 10450 10458 10468 10477 10486 10495 10503
9916 9916 9916 9916 9917 9918 9918 9919 9920 9921 9923 9924 9926 9927 9929 9931 9934 9937 9940 9944 9948 9952 9956 9961 9966 9970 9975 9981 9986 9992 9998 10003 10009 10015 10021 10029 10036 10043 10050 10056 10063 10070 10076 10085 10092 10100 10109 10118 10127 10136 10146 10156 10167 10178 10188 10200 10210 10220 10231 10242 10253 10263 10275 10286 10297 10308 10319 10330 10340 10352 10362 10373 10382 10391 10400 10411 10420 10427 10435 10445 10455 10464 10473 10482 10490 10498
9916 9916 9916 9916 9916 9917 9918 9919 9920 9921 9922 9923 9925 9926 9928 9930 9933 9935 9938 9942 9946 9950 9954 9958 9963 9968 9972 9978 9983 9988 9994 10000 10005 10012 10019 10026 10033 10041 10048 10053 10059 10066 10073 10081 10088 10096 10104 10113 10123 10132 10142 10152 10162 10172 10183 10193 10203 10214 10225 10236 10247 10258 10269 10280 10292 10303 10314 10325 10336 10347 10357 10367 10377 10387 10396 10406 10415 10423 10431 10440 10450 10460 10468 10477 10486 10494
9915 9916 9916 9916 9916 9917 9918 9919 9920 9921 9922 9923 9925 9926 9928 9930 9932 9935 9938 9941 9945 9948 9952 9956 9960 9965 9970 9975 9980 9985 9991 9996 10003 10009 10016 10023 10031 10038 10045 10050 10056 10063 10070 10077 10085 10092 10099 10108 10116 10126 10136 10146 10156 10166 10176 10186 10197 10208 10220 10231 10243 10253 10264 10275 10287 10298 10308 10320 10331 10342 10352 10362 10372 10382 10392 10402 10411 10419 10427 10437 10446 10455 10464 10473 10481 10490
9916 9916 9916 9916 9916 9918 9918 9919 9920 9921 9922 9923 9925 9926 9928 9930 9932 9935 9937 9940 9943 9947 9951 9955 9958 9963 9967 9972 9977 9982 9988 9993 10000 10006 10013 10021 10028 10035 10041 10046 10053 10060 10067 10074 10081 10089 10096 10105 10114 10123 10132 10141 10150 10160 10170 10181 10192 10203 10215 10226 10237 10248 10260 10271 10282 10293 10304 10315 10326 10337 10347 10357 10368 10377 10387 10397 10407 10415 10423 10432 10441 10450 10459 10468 10476 10484
9916 9916 9916 9916 9917 9918 9918 9919 9920 9921 9923 9924 9925 9926 9928 9930 9932 9935 9937 9940 9943 9946 9950 9953 9957 9961 9965 9970 9975 9980 9985 9990 9996 10003 10011 10018 10025 10031 10038 10044 10050 10057 10064 10071 10078 10086 10094 10103 10111 10120 10128 10136 10145 10155 10164 10175 10187 10199 10210 10221 10231 10243 10255 10266 10278 10288 10300 10310 10321 10331 10342 10353 10363 10373 10383 10393 10402 10410 10418 10427 10436 10446 10454 10463 10471 10478
9916 9916 9916 9916 9917 9918 9918 9920 9920 9921 9923 9924 9925 9927 9928 9930 9932 9935 9937 9940 9943 9946 9949 9953 9956 9960 9964 9968 9973 9977 9982 9988 9994 10001 10008 10015 10022 10028 10035 10041 10048 10055 10061 10070 10077 10085 10092 10100 10108 10115 10123 10132 10141 10151 10161 10172 10183 10193 10204 10215 10226 10237 10248 10260 10272 10283 10294 10305 10316 10327 10338 10349 10360 10370 10379 10390 10398 10405 10412 10420 10431 10442 10450 10458 10467 10474
9916 9916 9916 9917 9918 9918 9919 9920 9921 9922 9923 9925 9926 9927 9929 9931 9933 9935 9937 9940 9943 9946 9949 9952 9956 9960 9963 9968 9971 9976 9981 9986 9993 10000 10006 10013 10020 10026 10032 10039 10045 10053 10060 10068 10075 10082 10090 10097 10104 10111 10120 10128 10137 10147 10158 10169 10179 10188 10198 10211 10223 10234 10245 10257 10267 10278 10289 10300 10312 10324 10336 10346 10355 10365 10374 10383 10391 10398 10405 10415 10425 10435 10444 10453 10462 10470
9917 9917 9917 9918 9918 9918 9919 9920 9921 9922 9923 9925 9926 9928 9930 9931 9933 9935 9938 9940 9943 9946 9949 9952 9956 9960 9963 9967 9971 9976 9981 9986 9993 9998 10005 10011 10017 10024 10030 10036 10044 10051 10058 10065 10072 10079 10086 10093 10101 10110 10118 10126 10135 10145 10155 10165 10175 10185 10196 10208 10219 10230 10242 10253 10263 10274 10285 10297 10309 10321 10332 10341 10350 10360 10368 10377 10385 10393 10402 10412 10422 10433 10442 10450 10458 10466
9918 9918 9918 9918 9918 9919 9920 9920 9921 9923 9924 9925 9926 9928 9930 9931 9933 9936 9938 9941 9943 9946 9950 9953 9956 9960 9963 9967 9971 9976 9981 9986 9991 9997 10003 10009 10015 10021 10028 10035 10041 10049 10055 10062 10069 10076 10083 10090 10098 10106 10114 10123 10132 10141 10151 10160 10170 10181 10193 10205 10215 10224 10235 10248 10260 10271 10283 10295 10307 10317 10327 10337 10346 10355 10363 10373 10382 10392 10403 10413 10422 10432 10440 10449 10457 10465
9919 9918 9918 9919 9919 9920 9920 9921 9922 9923 9924 9926 9927 9929 9930 9932 9935 9936 9939 9941 9944 9947 9950 9953 9956 9960 9963 9967 9971 9976 9981 9985 9990 9996 10001 10006 10013 10019 10025 10031 10038 10045 10052 10059 10065 10072 10080 10087 10095 10102 10110 10118 10128 10138 10148 10157 10167 10178 10190 10200 10211 10221 10232 10245 10257 10270 10282 10293 10304 10315 10323 10333 10342 10352 10362 10371 10382 10393 10404 10413 10422 10430 10438 10446 10454 10463
9920 9920 9920 9920 9920 9920 9921 9921 9922 9923 9925 9926 9928 9929 9931 9933 9935 9937 9940 9942 9945 9947 9950 9953 9956 9960 9963 9967 9971 9975 9980 9985 9989 9994 9999 10005 10010 10016 10022 10029 10035 10042 10048 10055 10061 10068 10076 10083 10091 10099 10108 10116 10126 10135 10144 10154 10165 10176 10186 10197 10208 10221 10234 10245 10257 10268 10280 10292 10302 10311 10320 10331 10341 10352 10364 10374 10384 10395 10403 10410 10418 10426 10434 10442 10450 10458
9921 9920 9920 9920 9920 9921 9921 9922 9923 9924 9925 9926 9928 9930 9931 9933 9936 9938 9940 9943 9945 9948 9950 9953 9956 9960 9963 9966 9971 9975 9979 9983 9988 9992 9997 10003 10008 10014 10020 10026 10032 10039 10045 10051 10058 10066 10073 10080 10088 10096 10105 10115 10124 10133 10142 10152 10162 10173 10183 10195 10206 10219 10231 10242 10253 10267 10278 10289 10299 10308 10318 10329 10340 10352 10365 10375 10385 10393 10400 10405 10413 10422 10430 10438 10447 10455
9922 9921 9921 9921 9921 9921 9922 9923 9924 9925 9926 9927 9929 9931 9933 9935 9936 9939 9941 9943 9946 9948 9951 9954 9957 9960 9963 9966 9970 9974 9978 9983 9987 9991 9996 10001 10006 10012 10018 10024 10030 10036 10043 10050 10056 10064 10071 10079 10086 10095 10104 10113 10122 10131 10140 10150 10161 10171 10181 10193 10205 10217 10228 10239 10252 10264 10275 10286 10295 10306 10317 10328 10338 10349 10360 10369 10378 10387 10394 10400 10408 10417 10427 10436 10445 10453
9923 9923 9923 9922 9923 9923 9923 9924 9925 9926 9926 9928 9930 9931 9933 9935 9938 9940 9941 9944 9946 9949 9951 9955 9958 9961 9964 9968 9971 9975 9978 9983 9987 9991 9996 10001 10006 10012 10018 10023 10030 10036 10043 10050 10056 10063 10071 10079 10087 10095 10103 10111 10120 10129 10138 10148 10159 10170 10180 10191 10203 10215 10226 10239 10252 10263 10273 10283 10293 10303 10315 10327 10337 10347 10355 10363 10371 10380 10389 10397 10405 10414 10424 10433 10443 10451
9924 9924 9924 9923 9923 9924 9925 9925 9926 9926 9928 9929 9930 9932 9934 9936 9938 9940 9942 9945 9947 9950 9953 9955 9958 9962 9966 9969 9973 9977 9980 9984 9988 9993 9998 10003 10008 10013 10019 10025 10031 10038 10044 10050 10057 10063 10071 10078 10086 10094 10102 10110 10118 10126 10136 10146 10156 10167 10178 10190 10201 10212 10223 10236 10249 10260 10271 10282 10292 10303 10314 10323 10332 10340 10350 10359 10368 10377 10387 10395 10403 10413 10422 10432 10440 10448
9926 9925 9925 9925 9925 9925 9926 9926 9927 9928 9929 9930 9931 9933 9935 9936 9939 9941 9943 9946 9948 9951 9954 9957 9960 9963 9967 9971 9975 9979 9983 9986 9991 9995 10000 10004 10009 10015 10021 10026 10033 10039 10045 10051 10056 10063 10070 10078 10085 10093 10100 10108 10116 10125 10135 10144 10154 10165 10176 10186 10197 10208 10220 10233 10245 10256 10268 10279 10290 10302 10312 10320 10327 10335 10344 10355 10366 10375 10383 10392 10400 10409 10418 10428 10437 10444
9927 9926 9926 9926 9926 9926 9927 9928 9928 9929 9930 9931 9933 9934 9936 9938 9940 9942 9945 9947 9950 9952 9955 9958 9962 9965 9968 9972 9976 9980 9984 9988 9992 9996 10001 10006 10011 10016 10022 10028 10033 10038 10044 10050 10056 10063 10070 10077 10084 10091 10099 10107 10116 10125 10133 10142 10151 10162 10173 10184 10195 10206 10218 10230 10242 10253 10265 10276 10287 10299 10310 10318 10327 10335 10343 10352 10360 10369 10379 10388 10397 10406 10415 10425 10433 10440
9928 9928 9928 9928 9928 9928 9928 9929 9930 9931 9931 9933 9934 9935 9937 9939 9941 9943 9945 9948 9950 9953 9956 9960 9963 9966 9970 9974 9978 9982 9986 9990 9993 9998 10002 10007 10012 10017 10022 10027 10032 10038 10043 10049 10055 10061 10068 10075 10081 10089 10097 10105 10114 10123 10131 10140 10150 10160 10170 10181 10193 10204 10216 10228 10240 10252 10263 10273 10284 10296 10307 10315 10323 10332 10342 10350 10357 10365 10375 10385 10393 10403 10412 10421 10429 10435